Location: Moscow
(55.7500°N, 37.5830°E)
Time: 18:12:30
(UTC+03:00)

Transit 2A - Pass Details

Date: 08 December 2021
Orbit: 591 x 967 km, 66.7° (Epoch: 21 January)

Event Time Altitude Azimuth Distance (km) Brightness Sun altitude
Rises 09:48:05 0° 311° (NW) 3,666 8.9 5.0°
Reaches altitude 10° 09:51:50 10° 291° (WNW) 2,709 8.4 5.3°
Maximum altitude 09:55:13 15° 258° (WSW) 2,333 8.3 5.6°
Drops below altitude 10° 09:58:32 10° 226° (SW) 2,644 9.0 5.8°
Sets 10:02:08 0° 204° (SSW) 3,528 9.9 6.1°
